Location: Caltech
(34.1382°N, 118.1253°W)
Time: 22:22:21
(UTC-07:00)

Aureole 2 Rocket - Visible Passes

Search period start: 30 July 2014 00:00
Search period end: 09 August 2014 00:00
Orbit: 348 x 766 km, 74.0° (Epoch: 30 July)

Date Brightness Start Highest point End Pass type
(mag) Time Alt. Az. Time Alt. Az. Time Alt. Az.
30 Jul 6.1 01:29:19 10° NW 01:29:44 12° NW 01:29:44 12° NW visible
30 Jul 5.5 23:49:30 10° N 23:51:34 21° NNE 23:51:34 21° NNE visible
31 Jul 5.4 23:47:11 10° N 23:49:17 22° NNE 23:49:17 22° NNE visible
01 Aug 5.4 23:44:55 10° N 23:47:00 23° N 23:47:00 23° N visible
02 Aug 5.4 23:42:40 10° N 23:44:43 24° N 23:44:43 24° N visible
03 Aug 5.4 23:40:27 10° NNW 23:42:28 24° NNW 23:42:28 24° NNW visible
04 Aug 5.4 23:38:17 10° NNW 23:40:12 23° NNW 23:40:12 23° NNW visible
05 Aug 5.5 22:00:44 10° NNE 22:02:07 12° NE 22:02:07 12° NE visible
05 Aug 5.5 23:36:08 10° NNW 23:37:58 22° NNW 23:37:58 22° NNW visible
06 Aug 5.3 21:57:48 10° NNE 21:59:53 15° NE 21:59:53 15° NE visible
06 Aug 5.5 23:34:02 10° NNW 23:35:44 20° NW 23:35:44 20° NW visible
07 Aug 5.0 21:55:06 10° NNE 21:57:40 18° NE 21:57:40 18° NE visible
07 Aug 5.6 23:31:59 10° NW 23:33:31 18° NW 23:33:31 18° NW visible
08 Aug 4.8 21:52:31 10° N 21:55:27 22° NE 21:55:27 22° NE visible
08 Aug 5.7 23:30:00 10° NW 23:31:19 16° NW 23:31:19 16° NW visible
